Location: Kunchanapalle
(16.4623°N, 80.6176°E)
Time: 16:23:02
(UTC+00:00)

Meteor 1-27 Rocket - Pass Details

Date: 13 August 2020
Orbit: 831 x 909 km, 81.3° (Epoch: 17 September)

Event Time Altitude Azimuth Distance (km) Brightness Sun altitude
Rises 14:53:26 0° 360° (N) 3,531 7.3 -25.6°
Reaches altitude 10° 14:55:57 10° 4° (N) 2,589 6.5 -26.2°
Enters shadow 15:00:56 55° 47° (NE) 1,077 4.0 -27.2°
